Regional Weather Roundup
Issued by NWS

Home | Current Version | Previous Version | Graphics & Text | Print | Product List | Glossary On
Versions: 1 2 3 4 5 6 7 8 9 10 11 12 13 14 15 16 17 18 19 20 21 22 23 24 25 26 27 28 29 30 31 32 33 34 35 36 37 38 39 40 41 42 43 44 45 46 47 48 49 50
000
ASUS43 KMKX 262221
RWRWI

WISCONSIN REGIONAL WEATHER ROUNDUP
NATIONAL WEATHER SERVICE MILWAUKEE/SULLIVAN WI
400 PM CST MON JAN 26 2015

NOTE: "FAIR" INDICATES FEW OR NO CLOUDS BELOW 12,000 FEET WITH NO
SIGNIFICANT WEATHER AND/OR OBSTRUCTIONS TO VISIBILITY.

WIZ001-002-006>008-014>016-023>028-262300-
NORTHWEST WISCONSIN

CITY           SKY/WX    TMP DP  RH WIND       PRES   REMARKS
SUPERIOR ARPT  CLOUDY    30  28  94 CALM      29.76R FOG
ASHLAND        LGT SNOW  25  22  88 S3        29.78R FOG
HAYWARD        LGT SNOW  25  22  88 CALM      29.75R VSB 3/4
SIREN          MIX PCPN  33  32  96 CALM      29.76R
CUMBERLAND     LGT SNOW  27  27 100 CALM      29.75R VSB 3/4
RICE LAKE      LGT SNOW  26  24  93 CALM      29.77R
CHETEK         LGT SNOW  25  24  96 CALM      29.77R
LADYSMITH      DRIZZLE   24  22  93 S3        29.78R
EAU CLAIRE     CLOUDY    27  24  89 CALM      29.77R
MENOMONIE      CLOUDY    30  27  89 CALM      29.77R
NEW RICHMOND   CLOUDY    38  32  79 NW5       29.76R WCI  34
OSCEOLA        CLOUDY    39  33  77 W5        29.79R
$$

WIZ003>005-009-010-017-018-262300-
NORTH CENTRAL WISCONSIN

CITY           SKY/WX    TMP DP  RH WIND       PRES   REMARKS
MANITOWISH WTR CLOUDY    19  16  87 S5        29.74R WCI  12
ARBOR VITAE    CLOUDY    22  18  84 S5        29.74R WCI  15
WOODRUFF       CLOUDY    22  18  84 S5        29.74R WCI  15
RHINELANDER    CLOUDY    19  15  84 S7        29.75R WCI  10
EAGLE RIVER    CLOUDY    21  15  80 S7        29.74R WCI  12
LAND O LAKES   CLOUDY    21  17  83 S6        29.75R WCI  13
PHILLIPS       LGT SNOW  20  18  91 S6        29.74R WCI  12
TOMAHAWK       CLOUDY    19  16  86 CALM      29.76R
MEDFORD        CLOUDY    20  19  93 SE3       29.74S FOG
MERRILL        CLOUDY    21  17  85 SE5       29.76S WCI  14
$$

WIZ029-030-035-036-043>047-262300-
CENTRAL WISCONSIN

CITY           SKY/WX    TMP DP  RH WIND       PRES   REMARKS
WAUSAU         CLOUDY    21  17  84 SE7       29.76R WCI  12
MOSINEE        LGT SNOW  21  19  93 SE6       29.77R WCI  14
MARSHFIELD     CLOUDY    22  19  89 S9        29.76R WCI  12
STEVENS POINT  CLOUDY    20  18  91 SE6       29.79S FOG     WCI  13
WAUPACA        LGT SNOW  26  22  85 SE5       29.82R WCI  20
WAUTOMA        CLOUDY    23  22  96 S6        29.82S FOG     WCI  16
WISC RAPIDS    CLOUDY    22  19  89 SE7       29.80R WCI  13
CAMP DOUGLAS   CLOUDY    25  25 100 SE3       29.80R
$$

WIZ011>013-019>022-031-037>040-048>050-262300-
NORTHEAST WISCONSIN

CITY           SKY/WX    TMP DP  RH WIND       PRES   REMARKS
ANTIGO         CLOUDY    19  17  90 SE10      29.76S WCI   8
SHAWANO        FLURRIES  26  21  79 SE5       29.84R WCI  21
OCONTO         CLOUDY    25  21  86 MISG      29.86S
STURGEON BAY   CLOUDY    25  21  86 S7        29.89R WCI  17
GREEN BAY      LGT SNOW  26  21  81 S7        29.85S WCI  18
MANITOWOC      MIX PCPN  27  21  78 S10       29.86R WCI  17
APPLETON       LGT SNOW  25  19  80 SE8       29.83R WCI  16
CLINTONVILLE   FLURRIES  25  21  86 SE8       29.83R WCI  16
OSHKOSH        LGT SNOW  25  20  81 SE9       29.83R WCI  15
$$

WIZ032>034-041-042-053>061-262300-
SOUTHWEST WISCONSIN

CITY           SKY/WX    TMP DP  RH WIND       PRES   REMARKS
LA CROSSE      CLOUDY    30  26  85 S7        29.78R WCI  23
SPARTA         MIX PCPN  26  26  96 CALM      29.79R
VIROQUA        CLOUDY    26  26 100 S5        29.76R WCI  20
BOSCOBEL       CLOUDY    27  23  85 CALM      29.81R FOG
PRAIRIE DU CHI MIX PCPN  29  25  86 E5        29.80R WCI  24
PLATTEVILLE    CLOUDY    26  24  96 SE7       29.79S WCI  18
$$

WIZ056-057-062-063-064-067-068-262300-
SOUTH CENTRAL WISCONSIN

CITY           SKY/WX    TMP DP  RH WIND       PRES   REMARKS
REEDSBURG      CLOUDY    23  22  94 S5        29.80R FOG     WCI  17
BARABOO/DELLS  CLOUDY    23  21  93 S6        29.80R FOG     WCI  15
LONE ROCK      CLOUDY    25  23  92 CALM      29.82R FOG
MINERAL POINT  LGT RAIN  27  25  93 SE6       29.79R WCI  20
MADISON        LGT SNOW  23  20  88 S9G20     29.82R VSB 1   WCI  13
MIDDLETON      CLOUDY    24  23  94 S8        29.82R WCI  16
WATERTOWN      CLOUDY    24  23  96 S6        29.83R FOG     WCI  17
MONROE         MIX PCPN  23  23 100 SE8       29.80R WCI  14
JANESVILLE     CLOUDY    25  25 100 S9        29.84R FOG     WCI  15
$$

WIZ051-052-058>065-066-070>072-262300-
SOUTHEAST WISCONSIN

CITY           SKY/WX    TMP DP  RH WIND       PRES   REMARKS
MILWAUKEE      FLURRIES  26  20  77 SE10      29.86S WCI  16
WAUKESHA       LGT SNOW  23  19  86 SE7       29.84S WCI  15
MILWAUKEE/TIMM FLURRIES  27  19  74 SE7       29.86R WCI  19
RACINE         CLOUDY    26  19  74 SE7       29.88R WCI  18
BURLINGTON     FLURRIES  24  20  85 SE8       29.86R WCI  15
KENOSHA        CLOUDY    26  21  81 SE7       29.86R WCI  18
FOND DU LAC    LGT SNOW  25  19  78 S9        29.83R WCI  15
SHEBOYGAN      CLOUDY    26  18  71 S10       29.85R WCI  16
WEST BEND      FLURRIES  27  19  74 SE7       29.83S WCI  19
JUNEAU         MIX PCPN  24  21  89 S8        29.84R WCI  15
$$

LSZ147-162-262300-
LAKE SUPERIOR

STATION/POSITION TIME  TEMP    WIND        PRES    WAVE
                       AIR SEA DIR/SP/G            HT/PER
                 (UTC) (F)     (DEG/KT/KT) (MB)    (FT/S)
DEVILS ISLAND    2200   25     210/  3/  3 1009.5R
PORT WING        2100   28     310/  2/  3 1007.5R
SAXON HARBOR     2100   26     200/  2/  9 1007.5R
$$

LMZ867-665-643>646-262300-
LAKE MICHIGAN

STATION/POSITION TIME  TEMP    WIND        PRES    WAVE
                       AIR SEA DIR/SP/G            HT/PER
                 (UTC) (F)     (DEG/KT/KT) (MB)    (FT/S)
NORTHPORT PIER   2119   25     150/ 11/ 19 1012.5R
KEWAUNEE LAKESHO 2200   27     200/  9/ 12 1010.6R
SHEBOYGAN LAKESH 2200   26     190/ 12/ 14 1012.3R
PORT WASHINGTON  2100   27     160/ 10/ 13 1011.5
MILWAUKEE LAKESH 2200   26     160/ 11/ 13   N/A
KENOSHA   LAKESH 2200   26     160/ 11/ 13 1011.5R
$$

TC  - TEMPERATURE IN CELSIUS
VSB - VISIBILITY IN STATUTE MILES
WCI - WIND CHILL INDEX
HX  - HEAT INDEX




USA.gov is the U.S. government's official web portal to all federal, state and local government web resources and services.